| time (UTC) | temp F | wind direction | speed MPH | gust MPH | rain 1hr in | rain 24hr in | rain mn in | humidity % | barometer mb |
| 20260901205226 | 55 | 258 | 0.0 | 5.0 | 0.00 | 0.00 | 0.00 | 83 | 1015.5 |
| 20260901204732 | 55 | 251 | 0.0 | 5.0 | 0.00 | 0.00 | 0.00 | 84 | 1015.4 |
| 20260901204726 | 55 | 232 | 0.0 | 5.0 | 0.00 | 0.00 | 0.00 | 83 | 1015.4 |
| 20260901203727 | 55 | 235 | 0.0 | 4.0 | 0.00 | 0.00 | 0.00 | 84 | 1015.3 |
| 20260901203227 | 55 | 198 | 0.0 | 4.0 | 0.00 | 0.00 | 0.00 | 84 | 1015.2 |
| 20260901202726 | 55 | 212 | 0.0 | 5.0 | 0.00 | 0.00 | 0.00 | 84 | 1015.2 |
| 20260901202228 | 55 | 218 | 0.0 | 5.0 | 0.00 | 0.00 | 0.00 | 84 | 1015.0 |
| 20260901201727 | 56 | 199 | 0.0 | 3.0 | 0.00 | 0.00 | 0.00 | 84 | 1015.0 |
| 20260901201227 | 56 | 199 | 0.0 | 5.0 | 0.00 | 0.00 | 0.00 | 85 | 1014.9 |
| 20260901200725 | 56 | 200 | 0.0 | 5.0 | 0.00 | 0.00 | 0.00 | 85 | 1014.8 |
| 20260901200225 | 56 | 225 | 0.0 | 2.0 | 0.00 | 0.00 | 0.00 | 85 | 1014.8 |
| 20260901195731 | 56 | 233 | 0.0 | 2.0 | 0.00 | 0.00 | 0.00 | 85 | 1014.8 |
| 20260901195725 | 56 | 235 | 0.0 | 2.0 | 0.00 | 0.00 | 0.00 | 85 | 1014.8 |
| 20260901194724 | 56 | 235 | 0.0 | 3.0 | 0.00 | 0.00 | 0.00 | 85 | 1014.8 |
| 20260901194227 | 56 | 233 | 0.0 | 4.0 | 0.00 | 0.00 | 0.00 | 85 | 1014.8 |
| 20260901193726 | 56 | 216 | 0.0 | 4.0 | 0.00 | 0.00 | 0.00 | 85 | 1014.8 |
| 20260901193225 | 56 | 226 | 0.0 | 4.0 | 0.00 | 0.00 | 0.00 | 85 | 1014.7 |
| 20260901192724 | 56 | 223 | 0.0 | 4.0 | 0.00 | 0.00 | 0.00 | 85 | 1014.7 |
| 20260901192223 | 56 | 198 | 0.0 | 1.0 | 0.00 | 0.00 | 0.00 | 85 | 1014.7 |
| 20260901191722 | 56 | 185 | 0.0 | 7.0 | 0.00 | 0.00 | 0.00 | 85 | 1014.6 |
| 20260901191223 | 56 | 185 | 0.0 | 7.0 | 0.00 | 0.00 | 0.00 | 85 | 1014.5 |
| 20260901190722 | 56 | 226 | 0.0 | 3.0 | 0.00 | 0.00 | 0.00 | 85 | 1014.5 |
| 20260901190223 | 56 | 197 | 0.0 | 4.0 | 0.00 | 0.00 | 0.00 | 85 | 1014.4 |
| 20260901185724 | 56 | 195 | 1.0 | 6.0 | 0.00 | 0.00 | 0.00 | 85 | 1014.3 |
| 20260901185223 | 56 | 257 | 1.0 | 6.0 | 0.00 | 0.00 | 0.00 | 85 | 1014.3 |
| 20260901184728 | 57 | 243 | 1.0 | 5.0 | 0.00 | 0.00 | 0.00 | 85 | 1014.2 |
| 20260901184724 | 56 | 233 | 1.0 | 5.0 | 0.00 | 0.00 | 0.00 | 85 | 1014.2 |
| 20260901183721 | 57 | 224 | 1.0 | 4.0 | 0.00 | 0.00 | 0.00 | 85 | 1014.1 |
| 20260901183220 | 57 | 218 | 1.0 | 5.0 | 0.00 | 0.00 | 0.00 | 85 | 1014.1 |
| 20260901182720 | 57 | 233 | 1.0 | 5.0 | 0.00 | 0.00 | 0.00 | 85 | 1014.0 |
| 20260901182220 | 58 | 222 | 0.0 | 5.0 | 0.00 | 0.00 | 0.00 | 85 | 1013.9 |
| 20260901181720 | 58 | 235 | 1.0 | 8.0 | 0.00 | 0.00 | 0.00 | 84 | 1013.8 |
| 20260901181218 | 58 | 239 | 2.0 | 10.0 | 0.00 | 0.00 | 0.00 | 84 | 1013.7 |
| 20260901180718 | 58 | 237 | 2.0 | 10.0 | 0.00 | 0.00 | 0.00 | 84 | 1013.6 |
| 20260901180218 | 59 | 270 | 2.0 | 7.0 | 0.00 | 0.00 | 0.00 | 83 | 1013.5 |
| 20260901175720 | 59 | 247 | 2.0 | 9.0 | 0.00 | 0.00 | 0.00 | 82 | 1013.5 |
| 20260901175218 | 60 | 220 | 3.0 | 9.0 | 0.00 | 0.00 | 0.00 | 80 | 1013.4 |
| 20260901174719 | 60 | 240 | 3.0 | 9.0 | 0.00 | 0.00 | 0.00 | 77 | 1013.4 |
| 20260901174218 | 61 | 226 | 2.0 | 9.0 | 0.00 | 0.00 | 0.00 | 75 | 1013.4 |
| 20260901173718 | 62 | 224 | 3.0 | 8.0 | 0.00 | 0.00 | 0.00 | 74 | 1013.2 |
| 20260901173218 | 62 | 310 | 3.0 | 8.0 | 0.00 | 0.00 | 0.00 | 74 | 1012.8 |
| 20260901172717 | 62 | 309 | 3.0 | 9.0 | 0.00 | 0.00 | 0.00 | 73 | 1012.8 |
| 20260901172224 | 62 | 306 | 3.0 | 9.0 | 0.00 | 0.00 | 0.00 | 73 | 1012.8 |
| 20260901172218 | 62 | 310 | 4.0 | 9.0 | 0.00 | 0.00 | 0.00 | 73 | 1012.8 |
| 20260901171218 | 62 | 309 | 3.0 | 8.0 | 0.00 | 0.00 | 0.00 | 73 | 1012.7 |
| 20260901170718 | 62 | 321 | 3.0 | 8.0 | 0.00 | 0.00 | 0.00 | 73 | 1012.8 |
| 20260901170218 | 62 | 313 | 4.0 | 9.0 | 0.00 | 0.00 | 0.00 | 73 | 1012.8 |
| 20260901165718 | 62 | 291 | 4.0 | 9.0 | 0.00 | 0.00 | 0.00 | 73 | 1012.8 |
| 20260901165218 | 62 | 341 | 4.0 | 9.0 | 0.00 | 0.00 | 0.00 | 73 | 1012.9 |
| 20260901164724 | 62 | 316 | 3.0 | 7.0 | 0.00 | 0.00 | 0.00 | 72 | 1013.0 |
| 20260901164720 | 62 | 299 | 3.0 | 9.0 | 0.00 | 0.00 | 0.00 | 73 | 1012.9 |
| 20260901163716 | 62 | 303 | 3.0 | 7.0 | 0.00 | 0.00 | 0.00 | 72 | 1013.0 |
| 20260901163218 | 62 | 307 | 3.0 | 9.0 | 0.00 | 0.00 | 0.00 | 72 | 1013.0 |
| 20260901162715 | 62 | 309 | 3.0 | 9.0 | 0.00 | 0.00 | 0.00 | 72 | 1013.1 |
| 20260901162215 | 62 | 315 | 3.0 | 6.0 | 0.00 | 0.00 | 0.00 | 72 | 1013.1 |
| 20260901161714 | 62 | 312 | 3.0 | 7.0 | 0.00 | 0.00 | 0.00 | 71 | 1013.1 |
| 20260901161213 | 62 | 337 | 4.0 | 10.0 | 0.00 | 0.00 | 0.00 | 71 | 1013.1 |
| 20260901160714 | 62 | 303 | 4.0 | 10.0 | 0.00 | 0.00 | 0.00 | 71 | 1013.2 |
| 20260901160215 | 62 | 310 | 4.0 | 9.0 | 0.00 | 0.00 | 0.00 | 71 | 1013.1 |
| 20260901160211 | 62 | 335 | 4.0 | 9.0 | 0.00 | 0.00 | 0.00 | 71 | 1013.2 |
| 20260901155214 | 62 | 305 | 4.0 | 9.0 | 0.00 | 0.00 | 0.00 | 71 | 1013.2 |
| 20260901155208 | 62 | 334 | 3.0 | 8.0 | 0.00 | 0.00 | 0.00 | 71 | 1013.2 |
| 20260901154209 | 62 | 334 | 3.0 | 10.0 | 0.00 | 0.00 | 0.00 | 71 | 1013.2 |
| 20260901153710 | 62 | 359 | 4.0 | 10.0 | 0.00 | 0.00 | 0.00 | 70 | 1013.2 |
| 20260901153208 | 62 | 322 | 4.0 | 9.0 | 0.00 | 0.00 | 0.00 | 70 | 1013.2 |
| 20260901152712 | 63 | 312 | 4.0 | 9.0 | 0.00 | 0.00 | 0.00 | 70 | 1013.2 |
| 20260901152707 | 63 | 325 | 4.0 | 8.0 | 0.00 | 0.00 | 0.00 | 70 | 1013.1 |
| 20260901151708 | 63 | 305 | 3.0 | 9.0 | 0.00 | 0.00 | 0.00 | 70 | 1013.2 |
| 20260901151207 | 63 | 303 | 4.0 | 9.0 | 0.00 | 0.00 | 0.00 | 69 | 1013.2 |
| 20260901150704 | 63 | 343 | 4.0 | 9.0 | 0.00 | 0.00 | 0.00 | 69 | 1013.2 |
| 20260901150204 | 63 | 318 | 3.0 | 8.0 | 0.00 | 0.00 | 0.00 | 69 | 1013.1 |
| 20260901145704 | 63 | 330 | 4.0 | 7.0 | 0.00 | 0.00 | 0.00 | 69 | 1013.1 |
| 20260901145203 | 63 | 295 | 4.0 | 9.0 | 0.00 | 0.00 | 0.00 | 69 | 1013.1 |
| 20260901144710 | 63 | 313 | 4.0 | 9.0 | 0.00 | 0.00 | 0.00 | 68 | 1013.2 |
| 20260901144704 | 63 | 299 | 4.0 | 9.0 | 0.00 | 0.00 | 0.00 | 68 | 1013.1 |
| 20260901144339 | 64 | 312 | 4.0 | 10.0 | 0.00 | 0.00 | 0.00 | 68 | 1013.1 |
| 20260901144334 | 64 | 314 | 4.0 | 10.0 | 0.00 | 0.00 | 0.00 | 68 | 1013.1 |
| 20260901143333 | 64 | 330 | 4.0 | 12.0 | 0.00 | 0.00 | 0.00 | 68 | 1013.1 |
| 20260901142205 | 63 | 329 | 4.0 | 12.0 | 0.00 | 0.00 | 0.00 | 68 | 1013.1 |
| 20260901141704 | 63 | 8 | 4.0 | 9.0 | 0.00 | 0.00 | 0.00 | 69 | 1013.2 |
| 20260901141204 | 63 | 303 | 4.0 | 14.0 | 0.00 | 0.00 | 0.00 | 69 | 1013.1 |
| 20260901140701 | 64 | 319 | 4.0 | 14.0 | 0.00 | 0.00 | 0.00 | 69 | 1013.1 |
| 20260901140202 | 64 | 292 | 6.0 | 15.0 | 0.00 | 0.00 | 0.00 | 67 | 1013.1 |
| 20260901135702 | 64 | 302 | 6.0 | 15.0 | 0.00 | 0.00 | 0.00 | 66 | 1013.1 |
| 20260901135202 | 64 | 310 | 6.0 | 11.0 | 0.00 | 0.00 | 0.00 | 65 | 1013.2 |
| 20260901134701 | 64 | 351 | 6.0 | 12.0 | 0.00 | 0.00 | 0.00 | 65 | 1013.2 |
| 20260901134202 | 64 | 301 | 7.0 | 14.0 | 0.00 | 0.00 | 0.00 | 65 | 1013.1 |
| 20260901133703 | 65 | 295 | 7.0 | 14.0 | 0.00 | 0.00 | 0.00 | 64 | 1013.2 |
| 20260901133202 | 65 | 299 | 5.0 | 14.0 | 0.00 | 0.00 | 0.00 | 63 | 1013.2 |
| 20260901132741 | 65 | 291 | 5.0 | 12.0 | 0.00 | 0.00 | 0.00 | 63 | 1013.1 |
| 20260901132202 | 65 | 322 | 5.0 | 12.0 | 0.00 | 0.00 | 0.00 | 63 | 1013.1 |
| 20260901131708 | 65 | 275 | 9.0 | 16.0 | 0.00 | 0.00 | 0.00 | 63 | 1013.2 |
| 20260901131702 | 65 | 328 | 7.0 | 16.0 | 0.00 | 0.00 | 0.00 | 63 | 1013.2 |
| 20260901130709 | 65 | 306 | 9.0 | 18.0 | 0.00 | 0.00 | 0.00 | 62 | 1013.3 |
| 20260901130704 | 65 | 320 | 9.0 | 17.0 | 0.00 | 0.00 | 0.00 | 63 | 1013.2 |
| 20260901125658 | 65 | 274 | 9.0 | 23.0 | 0.00 | 0.00 | 0.00 | 62 | 1013.3 |
| 20260901125200 | 66 | 320 | 9.0 | 23.0 | 0.00 | 0.00 | 0.00 | 61 | 1013.3 |
| 20260901124701 | 66 | 314 | 11.0 | 25.0 | 0.00 | 0.00 | 0.00 | 61 | 1013.4 |
| 20260901124159 | 66 | 303 | 10.0 | 25.0 | 0.00 | 0.00 | 0.00 | 60 | 1013.3 |
| 20260901123705 | 66 | 342 | 10.0 | 19.0 | 0.00 | 0.00 | 0.00 | 60 | 1013.3 |
| 20260901123700 | 66 | 314 | 9.0 | 20.0 | 0.00 | 0.00 | 0.00 | 60 | 1013.3 |
| 20260901122700 | 66 | 304 | 10.0 | 19.0 | 0.00 | 0.00 | 0.00 | 60 | 1013.3 |
| 20260901122200 | 66 | 326 | 11.0 | 25.0 | 0.00 | 0.00 | 0.00 | 59 | 1013.2 |
| 20260901121657 | 66 | 317 | 13.0 | 25.0 | 0.00 | 0.00 | 0.00 | 59 | 1013.2 |
| 20260901121158 | 66 | 10 | 12.0 | 25.0 | 0.00 | 0.00 | 0.00 | 59 | 1013.3 |
| 20260901120657 | 66 | 318 | 11.0 | 24.0 | 0.00 | 0.00 | 0.00 | 60 | 1013.2 |
| 20260901120157 | 66 | 309 | 12.0 | 24.0 | 0.00 | 0.00 | 0.00 | 60 | 1013.2 |
| 20260901115657 | 67 | 299 | 12.0 | 23.0 | 0.00 | 0.00 | 0.00 | 59 | 1013.0 |
| 20260901115159 | 67 | 320 | 12.0 | 24.0 | 0.00 | 0.00 | 0.00 | 57 | 1013.0 |
| 20260901114658 | 67 | 300 | 11.0 | 24.0 | 0.00 | 0.00 | 0.00 | 57 | 1013.1 |
| 20260901114203 | 67 | 330 | 10.0 | 18.0 | 0.00 | 0.00 | 0.00 | 57 | 1013.1 |
| 20260901113657 | 67 | 342 | 10.0 | 21.0 | 0.00 | 0.00 | 0.00 | 57 | 1013.2 |
| 20260901113157 | 67 | 291 | 9.0 | 21.0 | 0.00 | 0.00 | 0.00 | 57 | 1013.2 |
| 20260901112656 | 67 | 342 | 7.0 | 14.0 | 0.00 | 0.00 | 0.00 | 58 | 1013.2 |
| 20260901112154 | 67 | 326 | 8.0 | 19.0 | 0.00 | 0.00 | 0.00 | 58 | 1013.1 |
| 20260901111654 | 67 | 0 | 9.0 | 19.0 | 0.00 | 0.00 | 0.00 | 58 | 1013.1 |
| 20260901111155 | 67 | 356 | 8.0 | 17.0 | 0.00 | 0.00 | 0.00 | 58 | 1013.1 |
| 20260901110652 | 67 | 352 | 8.0 | 17.0 | 0.00 | 0.00 | 0.00 | 58 | 1013.1 |
| 20260901110154 | 67 | 326 | 8.0 | 17.0 | 0.00 | 0.00 | 0.00 | 58 | 1013.0 |
| 20260901105657 | 67 | 321 | 7.0 | 17.0 | 0.00 | 0.00 | 0.00 | 59 | 1012.9 |
| 20260901105651 | 67 | 330 | 8.0 | 17.0 | 0.00 | 0.00 | 0.00 | 59 | 1012.9 |
| 20260901104704 | 67 | 330 | 9.0 | 21.0 | 0.00 | 0.00 | 0.00 | 59 | 1012.7 |
| 20260901104651 | 67 | 336 | 7.0 | 17.0 | 0.00 | 0.00 | 0.00 | 60 | 1012.8 |
| 20260901104154 | 67 | 343 | 8.0 | 21.0 | 0.00 | 0.00 | 0.00 | 60 | 1012.9 |
| 20260901103153 | 67 | 308 | 9.0 | 17.0 | 0.00 | 0.00 | 0.00 | 58 | 1012.7 |
| 20260901102651 | 67 | 301 | 8.0 | 18.0 | 0.00 | 0.00 | 0.00 | 57 | 1012.8 |
| 20260901102152 | 68 | 359 | 8.0 | 18.0 | 0.00 | 0.00 | 0.00 | 55 | 1012.9 |
| 20260901101653 | 68 | 4 | 7.0 | 16.0 | 0.00 | 0.00 | 0.00 | 55 | 1013.1 |
| 20260901101152 | 68 | 312 | 7.0 | 17.0 | 0.00 | 0.00 | 0.00 | 54 | 1013.2 |
| 20260901100659 | 68 | 347 | 7.0 | 14.0 | 0.00 | 0.00 | 0.00 | 54 | 1013.0 |
| 20260901100651 | 68 | 22 | 7.0 | 17.0 | 0.00 | 0.00 | 0.00 | 54 | 1013.1 |
| 20260901095618 | 68 | 347 | 8.0 | 18.0 | 0.00 | 0.00 | 0.00 | 53 | 1013.0 |
| 20260901095117 | 68 | 347 | 7.0 | 18.0 | 0.00 | 0.00 | 0.00 | 53 | 1013.0 |
| 20260901094619 | 68 | 303 | 6.0 | 14.0 | 0.00 | 0.00 | 0.00 | 53 | 1013.1 |
| 20260901094118 | 68 | 346 | 6.0 | 13.0 | 0.00 | 0.00 | 0.00 | 53 | 1013.0 |
| 20260901093616 | 68 | 347 | 6.0 | 13.0 | 0.00 | 0.00 | 0.00 | 52 | 1012.9 |
| 20260901093117 | 68 | 6 | 6.0 | 13.0 | 0.00 | 0.00 | 0.00 | 52 | 1013.0 |
| 20260901092615 | 68 | 327 | 7.0 | 14.0 | 0.00 | 0.00 | 0.00 | 52 | 1013.0 |
| 20260901092115 | 69 | 326 | 8.0 | 15.0 | 0.00 | 0.00 | 0.00 | 51 | 1013.0 |
| 20260901091615 | 69 | 311 | 7.0 | 15.0 | 0.00 | 0.00 | 0.00 | 51 | 1013.0 |
| 20260901091115 | 69 | 337 | 7.0 | 12.0 | 0.00 | 0.00 | 0.00 | 51 | 1013.0 |
| 20260901090615 | 69 | 347 | 7.0 | 15.0 | 0.00 | 0.00 | 0.00 | 51 | 1013.0 |
| 20260901090115 | 69 | 0 | 7.0 | 15.0 | 0.00 | 0.00 | 0.00 | 51 | 1013.1 |
| 20260901085616 | 69 | 355 | 6.0 | 15.0 | 0.00 | 0.00 | 0.00 | 51 | 1013.2 |
| 20260901085114 | 69 | 4 | 6.0 | 18.0 | 0.00 | 0.00 | 0.00 | 50 | 1013.2 |
| 20260901084614 | 69 | 7 | 6.0 | 18.0 | 0.00 | 0.00 | 0.00 | 50 | 1013.1 |
| 20260901084115 | 69 | 308 | 6.0 | 15.0 | 0.00 | 0.00 | 0.00 | 49 | 1013.2 |
| 20260901083616 | 69 | 15 | 7.0 | 15.0 | 0.00 | 0.00 | 0.00 | 49 | 1013.3 |
| 20260901083115 | 69 | 322 | 6.0 | 13.0 | 0.00 | 0.00 | 0.00 | 49 | 1013.5 |
| 20260901082621 | 69 | 347 | 6.0 | 12.0 | 0.00 | 0.00 | 0.00 | 49 | 1013.6 |
| 20260901082616 | 69 | 5 | 5.0 | 13.0 | 0.00 | 0.00 | 0.00 | 49 | 1013.5 |
| 20260901082241 | 69 | 326 | 6.0 | 12.0 | 0.00 | 0.00 | 0.00 | 49 | 1013.6 |
| 20260901081738 | 69 | 323 | 5.0 | 14.0 | 0.00 | 0.00 | 0.00 | 48 | 1013.8 |
| 20260901081111 | 69 | 356 | 5.0 | 12.0 | 0.00 | 0.00 | 0.00 | 49 | 1013.7 |
| 20260901080110 | 70 | 349 | 7.0 | 14.0 | 0.00 | 0.00 | 0.00 | 48 | 1013.8 |
| 20260901075612 | 70 | 5 | 8.0 | 17.0 | 0.00 | 0.00 | 0.00 | 48 | 1013.9 |
| 20260901075108 | 70 | 347 | 7.0 | 17.0 | 0.00 | 0.00 | 0.00 | 48 | 1014.0 |
| 20260901074609 | 70 | 320 | 7.0 | 15.0 | 0.00 | 0.00 | 0.00 | 47 | 1014.1 |
| 20260901074306 | 70 | 322 | 7.0 | 16.0 | 0.00 | 0.00 | 0.00 | 47 | 1014.1 |
| 20260901073823 | 70 | 342 | 8.0 | 17.0 | 0.00 | 0.00 | 0.00 | 47 | 1014.1 |
| 20260901073108 | 70 | 319 | 7.0 | 17.0 | 0.00 | 0.00 | 0.00 | 47 | 1014.1 |
| 20260901072609 | 70 | 352 | 7.0 | 15.0 | 0.00 | 0.00 | 0.00 | 47 | 1014.2 |
| 20260901072108 | 70 | 337 | 7.0 | 16.0 | 0.00 | 0.00 | 0.00 | 47 | 1014.1 |
| 20260901071608 | 70 | 6 | 7.0 | 16.0 | 0.00 | 0.00 | 0.00 | 47 | 1014.3 |
| 20260901071108 | 70 | 298 | 8.0 | 15.0 | 0.00 | 0.00 | 0.00 | 47 | 1014.3 |
| 20260901070607 | 70 | 311 | 7.0 | 15.0 | 0.00 | 0.00 | 0.00 | 46 | 1014.1 |
| 20260901070108 | 70 | 316 | 5.0 | 14.0 | 0.00 | 0.00 | 0.00 | 46 | 1014.2 |
| 20260901065607 | 70 | 316 | 7.0 | 15.0 | 0.00 | 0.00 | 0.00 | 46 | 1014.3 |
| 20260901065106 | 70 | 292 | 7.0 | 15.0 | 0.00 | 0.00 | 0.00 | 46 | 1014.2 |
| 20260901064606 | 70 | 289 | 7.0 | 17.0 | 0.00 | 0.00 | 0.00 | 46 | 1014.0 |
| 20260901064108 | 70 | 310 | 6.0 | 17.0 | 0.00 | 0.00 | 0.00 | 46 | 1013.9 |
| 20260901063606 | 71 | 297 | 7.0 | 17.0 | 0.00 | 0.00 | 0.00 | 45 | 1013.9 |
| 20260901063108 | 71 | 312 | 7.0 | 17.0 | 0.00 | 0.00 | 0.00 | 45 | 1014.2 |
| 20260901062607 | 70 | 316 | 7.0 | 13.0 | 0.00 | 0.00 | 0.00 | 46 | 1014.0 |
| 20260901062108 | 71 | 351 | 6.0 | 12.0 | 0.00 | 0.00 | 0.00 | 46 | 1013.9 |
| 20260901061606 | 71 | 333 | 6.0 | 13.0 | 0.00 | 0.00 | 0.00 | 46 | 1014.0 |
| 20260901061106 | 71 | 299 | 5.0 | 13.0 | 0.00 | 0.00 | 0.00 | 46 | 1013.9 |
| 20260901060612 | 71 | 293 | 7.0 | 17.0 | 0.00 | 0.00 | 0.00 | 46 | 1013.9 |
| 20260901060606 | 71 | 304 | 6.0 | 13.0 | 0.00 | 0.00 | 0.00 | 46 | 1014.0 |
| 20260901055606 | 71 | 314 | 8.0 | 17.0 | 0.00 | 0.00 | 0.00 | 45 | 1013.9 |
| 20260901055225 | 71 | 322 | 9.0 | 20.0 | 0.00 | 0.00 | 0.00 | 45 | 1013.8 |
| 20260901055216 | 71 | 348 | 9.0 | 20.0 | 0.00 | 0.00 | 0.00 | 45 | 1013.9 |
| 20260901054108 | 71 | 4 | 8.0 | 18.0 | 0.00 | 0.00 | 0.00 | 45 | 1013.8 |
| 20260901053607 | 71 | 348 | 6.0 | 17.0 | 0.00 | 0.00 | 0.00 | 45 | 1013.6 |
| 20260901053106 | 71 | 348 | 7.0 | 24.0 | 0.00 | 0.00 | 0.00 | 45 | 1013.5 |
| 20260901052606 | 71 | 337 | 10.0 | 24.0 | 0.00 | 0.00 | 0.00 | 44 | 1013.5 |
| 20260901052106 | 71 | 324 | 11.0 | 25.0 | 0.00 | 0.00 | 0.00 | 44 | 1013.6 |
| 20260901051605 | 71 | 2 | 9.0 | 25.0 | 0.00 | 0.00 | 0.00 | 44 | 1013.6 |
| 20260901051108 | 71 | 311 | 10.0 | 28.0 | 0.00 | 0.00 | 0.00 | 46 | 1013.5 |
| 20260901051102 | 71 | 353 | 8.0 | 21.0 | 0.00 | 0.00 | 0.00 | 46 | 1013.6 |
| 20260901045604 | 71 | 359 | 10.0 | 30.0 | 0.00 | 0.00 | 0.00 | 46 | 1013.6 |
| 20260901045103 | 71 | 18 | 11.0 | 30.0 | 0.00 | 0.00 | 0.00 | 45 | 1013.6 |
| 20260901044600 | 72 | 338 | 10.0 | 25.0 | 0.00 | 0.00 | 0.00 | 44 | 1013.7 |
| 20260901044058 | 72 | 353 | 10.0 | 21.0 | 0.00 | 0.00 | 0.00 | 45 | 1013.8 |
| 20260901043558 | 72 | 345 | 11.0 | 23.0 | 0.00 | 0.00 | 0.00 | 45 | 1014.1 |
| 20260901043059 | 72 | 328 | 11.0 | 23.0 | 0.00 | 0.00 | 0.00 | 45 | 1014.4 |
| 20260901042557 | 72 | 315 | 11.0 | 26.0 | 0.00 | 0.00 | 0.00 | 45 | 1014.5 |
| 20260901042058 | 71 | 340 | 12.0 | 26.0 | 0.00 | 0.00 | 0.00 | 45 | 1014.3 |
| 20260901041558 | 72 | 295 | 11.0 | 21.0 | 0.00 | 0.00 | 0.00 | 45 | 1014.5 |
| 20260901041101 | 71 | 323 | 13.0 | 23.0 | 0.00 | 0.00 | 0.00 | 45 | 1014.7 |
| 20260901041056 | 71 | 331 | 11.0 | 23.0 | 0.00 | 0.00 | 0.00 | 46 | 1014.7 |
| 20260901040052 | 72 | 276 | 11.0 | 23.0 | 0.00 | 0.00 | 0.00 | 45 | 1014.9 |
| 20260901035553 | 72 | 330 | 10.0 | 22.0 | 0.00 | 0.00 | 0.00 | 44 | 1015.0 |
| 20260901035055 | 71 | 322 | 11.0 | 28.0 | 0.00 | 0.00 | 0.00 | 45 | 1015.3 |
| 20260901035050 | 71 | 299 | 10.0 | 22.0 | 0.00 | 0.00 | 0.00 | 44 | 1015.1 |
| 20260901034052 | 71 | 274 | 11.0 | 28.0 | 0.00 | 0.00 | 0.00 | 45 | 1015.5 |
| 20260901033550 | 71 | 288 | 12.0 | 24.0 | 0.00 | 0.00 | 0.00 | 45 | 1015.5 |
| 20260901033049 | 71 | 295 | 12.0 | 24.0 | 0.00 | 0.00 | 0.00 | 44 | 1015.7 |
| 20260901032553 | 71 | 331 | 11.0 | 26.0 | 0.00 | 0.00 | 0.00 | 44 | 1015.9 |
| 20260901032052 | 71 | 316 | 12.0 | 26.0 | 0.00 | 0.00 | 0.00 | 43 | 1015.9 |
| 20260901031557 | 71 | 280 | 11.0 | 31.0 | 0.00 | 0.00 | 0.00 | 43 | 1016.0 |
| 20260901031551 | 71 | 318 | 13.0 | 31.0 | 0.00 | 0.00 | 0.00 | 44 | 1015.9 |
| 20260901030549 | 72 | 254 | 8.0 | 25.0 | 0.00 | 0.00 | 0.00 | 43 | 1016.0 |
| 20260901030048 | 72 | 243 | 9.0 | 25.0 | 0.00 | 0.00 | 0.00 | 43 | 1016.2 |
| 20260901025554 | 71 | 329 | 11.0 | 22.0 | 0.00 | 0.00 | 0.00 | 44 | 1016.4 |
| 20260901025548 | 71 | 320 | 10.0 | 19.0 | 0.00 | 0.00 | 0.00 | 43 | 1016.1 |
| 20260901024548 | 71 | 0 | 12.0 | 30.0 | 0.00 | 0.00 | 0.00 | 44 | 1016.5 |
| 20260901024047 | 71 | 311 | 11.0 | 30.0 | 0.00 | 0.00 | 0.00 | 43 | 1016.7 |
| 20260901023550 | 71 | 341 | 9.0 | 23.0 | 0.00 | 0.00 | 0.00 | 44 | 1016.7 |
| 20260901023048 | 71 | 325 | 9.0 | 23.0 | 0.00 | 0.00 | 0.00 | 44 | 1016.8 |
| 20260901022549 | 71 | 326 | 10.0 | 20.0 | 0.00 | 0.00 | 0.00 | 44 | 1016.9 |
| 20260901022047 | 71 | 12 | 10.0 | 20.0 | 0.00 | 0.00 | 0.00 | 45 | 1017.0 |
| 20260901021549 | 71 | 1 | 9.0 | 22.0 | 0.00 | 0.00 | 0.00 | 47 | 1017.1 |
| 20260901021048 | 71 | 351 | 7.0 | 22.0 | 0.00 | 0.00 | 0.00 | 47 | 1017.1 |
| 20260901020548 | 70 | 305 | 7.0 | 19.0 | 0.00 | 0.00 | 0.00 | 50 | 1017.2 |
| 20260901020048 | 70 | 338 | 8.0 | 16.0 | 0.00 | 0.00 | 0.00 | 50 | 1017.3 |
| 20260901015547 | 69 | 0 | 8.0 | 15.0 | 0.00 | 0.00 | 0.00 | 51 | 1017.6 |
| 20260901015048 | 69 | 15 | 8.0 | 17.0 | 0.00 | 0.00 | 0.00 | 52 | 1017.6 |
| 20260901014549 | 69 | 358 | 8.0 | 17.0 | 0.00 | 0.00 | 0.00 | 52 | 1017.7 |
| 20260901014045 | 69 | 358 | 8.0 | 19.0 | 0.00 | 0.00 | 0.00 | 52 | 1017.7 |
| 20260901013546 | 69 | 11 | 10.0 | 25.0 | 0.00 | 0.00 | 0.00 | 52 | 1017.8 |
| 20260901013045 | 68 | 350 | 10.0 | 28.0 | 0.00 | 0.00 | 0.00 | 52 | 1017.6 |
| 20260901012553 | 68 | 329 | 8.0 | 20.0 | 0.00 | 0.00 | 0.00 | 54 | 1017.7 |
| 20260901012547 | 68 | 19 | 9.0 | 28.0 | 0.00 | 0.00 | 0.00 | 53 | 1017.7 |
| 20260901011547 | 67 | 354 | 8.0 | 20.0 | 0.00 | 0.00 | 0.00 | 55 | 1017.8 |
| 20260901011046 | 67 | 352 | 10.0 | 22.0 | 0.00 | 0.00 | 0.00 | 55 | 1017.9 |
| 20260901010545 | 66 | 27 | 10.0 | 22.0 | 0.00 | 0.00 | 0.00 | 56 | 1017.9 |
| 20260901010047 | 66 | 20 | 10.0 | 20.0 | 0.00 | 0.00 | 0.00 | 56 | 1017.9 |
| 20260901005543 | 66 | 17 | 11.0 | 27.0 | 0.00 | 0.00 | 0.00 | 58 | 1018.0 |
| 20260901005044 | 65 | 338 | 11.0 | 27.0 | 0.00 | 0.00 | 0.00 | 58 | 1018.2 |
| 20260901004541 | 65 | 18 | 10.0 | 19.0 | 0.00 | 0.00 | 0.00 | 59 | 1018.1 |
| 20260901004043 | 65 | 348 | 11.0 | 21.0 | 0.00 | 0.00 | 0.00 | 61 | 1018.6 |
| 20260901003543 | 65 | 12 | 10.0 | 21.0 | 0.00 | 0.00 | 0.00 | 61 | 1018.7 |
| 20260901003039 | 65 | 23 | 9.0 | 25.0 | 0.00 | 0.00 | 0.00 | 62 | 1018.9 |
| 20260901002547 | 64 | 48 | 11.0 | 25.0 | 0.00 | 0.00 | 0.00 | 62 | 1019.2 |
| 20260901002541 | 65 | 299 | 11.0 | 25.0 | 0.00 | 0.00 | 0.00 | 62 | 1019.0 |
| 20260901001539 | 64 | 299 | 11.0 | 25.0 | 0.00 | 0.00 | 0.00 | 62 | 1019.3 |
| 20260901001046 | 64 | 358 | 11.0 | 23.0 | 0.00 | 0.00 | 0.00 | 64 | 1019.3 |
| 20260901001041 | 64 | 355 | 12.0 | 24.0 | 0.00 | 0.00 | 0.00 | 63 | 1019.2 |
| 20260901000537 | 64 | 19 | 12.0 | 23.0 | 0.00 | 0.00 | 0.00 | 63 | 1019.4 |
| 20260831235539 | 64 | 2 | 10.0 | 21.0 | 0.00 | 0.00 | 0.00 | 65 | 1019.4 |
| 20260831235037 | 63 | 295 | 11.0 | 23.0 | 0.00 | 0.00 | 0.00 | 66 | 1019.5 |
| 20260831234537 | 63 | 4 | 11.0 | 23.0 | 0.00 | 0.00 | 0.00 | 66 | 1019.5 |
| 20260831234037 | 63 | 11 | 10.0 | 23.0 | 0.00 | 0.00 | 0.00 | 67 | 1019.6 |
| 20260831233537 | 63 | 331 | 9.0 | 21.0 | 0.00 | 0.00 | 0.00 | 67 | 1019.7 |
| 20260831233046 | 62 | 337 | 10.0 | 23.0 | 0.00 | 0.00 | 0.00 | 68 | 1020.2 |
| 20260831233039 | 62 | 25 | 10.0 | 23.0 | 0.00 | 0.00 | 0.00 | 68 | 1019.9 |
| 20260831232042 | 62 | 35 | 8.0 | 22.0 | 0.00 | 0.00 | 0.00 | 69 | 1020.7 |
| 20260831232037 | 62 | 347 | 9.0 | 22.0 | 0.00 | 0.00 | 0.00 | 69 | 1020.4 |
| 20260831231037 | 62 | 2 | 7.0 | 18.0 | 0.00 | 0.00 | 0.00 | 71 | 1020.8 |
| 20260831230538 | 62 | 16 | 8.0 | 18.0 | 0.00 | 0.00 | 0.00 | 71 | 1020.9 |
| 20260831230038 | 61 | 8 | 8.0 | 17.0 | 0.00 | 0.00 | 0.00 | 71 | 1021.0 |
| 20260831225538 | 61 | 3 | 7.0 | 17.0 | 0.00 | 0.00 | 0.00 | 72 | 1021.1 |
| 20260831225043 | 61 | 336 | 6.0 | 16.0 | 0.00 | 0.00 | 0.00 | 74 | 1021.2 |
| 20260831225037 | 61 | 0 | 7.0 | 17.0 | 0.00 | 0.00 | 0.00 | 73 | 1021.1 |
| 20260831224039 | 60 | 15 | 7.0 | 14.0 | 0.00 | 0.00 | 0.00 | 75 | 1021.3 |
| 20260831223542 | 60 | 339 | 8.0 | 20.0 | 0.00 | 0.00 | 0.00 | 76 | 1021.5 |
| 20260831223536 | 60 | 20 | 8.0 | 20.0 | 0.00 | 0.00 | 0.00 | 75 | 1021.4 |
| 20260831222537 | 60 | 36 | 7.0 | 19.0 | 0.00 | 0.00 | 0.00 | 77 | 1021.5 |
| 20260831222038 | 60 | 316 | 6.0 | 15.0 | 0.00 | 0.00 | 0.00 | 78 | 1021.5 |
| 20260831221544 | 59 | 339 | 7.0 | 16.0 | 0.00 | 0.00 | 0.00 | 79 | 1021.7 |
| 20260831221538 | 59 | 335 | 7.0 | 15.0 | 0.00 | 0.00 | 0.00 | 78 | 1021.5 |
| 20260831221208 | 59 | 338 | 5.0 | 16.0 | 0.00 | 0.00 | 0.00 | 80 | 1021.9 |
| 20260831220036 | 58 | 32 | 5.0 | 12.0 | 0.00 | 0.00 | 0.00 | 81 | 1021.8 |
| 20260831215539 | 58 | 335 | 6.0 | 14.0 | 0.00 | 0.00 | 0.00 | 81 | 1021.8 |
| 20260831215037 | 58 | 27 | 6.0 | 14.0 | 0.00 | 0.00 | 0.00 | 82 | 1021.7 |
| 20260831214536 | 58 | 301 | 7.0 | 19.0 | 0.00 | 0.00 | 0.00 | 83 | 1021.6 |
| 20260831214034 | 58 | 342 | 8.0 | 19.0 | 0.00 | 0.00 | 0.00 | 83 | 1021.6 |
| 20260831213537 | 58 | 355 | 7.0 | 16.0 | 0.00 | 0.00 | 0.00 | 84 | 1021.6 |
| 20260831213035 | 57 | 346 | 7.0 | 16.0 | 0.00 | 0.00 | 0.00 | 84 | 1021.6 |
| 20260831212540 | 57 | 326 | 6.0 | 12.0 | 0.00 | 0.00 | 0.00 | 85 | 1021.6 |
| 20260831212535 | 57 | 345 | 7.0 | 15.0 | 0.00 | 0.00 | 0.00 | 85 | 1021.6 |
| 20260831211535 | 57 | 0 | 6.0 | 12.0 | 0.00 | 0.00 | 0.00 | 85 | 1021.6 |
| 20260831211034 | 57 | 8 | 5.0 | 12.0 | 0.00 | 0.00 | 0.00 | 85 | 1021.6 |
| 20260831210037 | 56 | 0 | 5.0 | 13.0 | 0.00 | 0.00 | 0.00 | 86 | 1021.6 |